Other Public Products
Issued by NWS Grand Forks, ND

Home | Current Version | Previous Version | Graphics & Text | Print | Product List | Glossary On
Versions: 1 2 3 4 5 6 7 8 9 10 11 12 13 14 15 16 17 18 19 20 21 22 23 24 25 26 27 28 29 30 31 32 33 34 35 36 37 38 39 40 41 42 43 44 45 46 47 48 49 50
000
FPUS83 KFGF 201410
OPUFGF
PRAIRIE TO PINES WEATHER ROUNDUP
NATIONAL WEATHER SERVICE EASTERN NORTH DAKOTA/GRAND FORKS ND
800 AM CST FRI JAN 20 2017

 **SATELLITE DATA USED TO AUGMENT SKY COVER AT AUTOMATED STATIONS**
 *****  WEATHER ACROSS EASTERN NORTH DAKOTA  *****

CITY           SKY/WX    TMP DP  RH WIND       PRES   REMARKS
GRAND FORKS    FOG       36  33  89 SE15      29.51R VSB 3/4
GRAND FORKS AF FOG       34  34 100 SE9       29.50S VSB 1
GRAND CITY NWS NOT AVBL
BUXTON         NOT AVBL
DEVILS LAKE    MIX PCPN  32  32 100 SE6       29.45S FOG
FARGO          CLOUDY    36  36 100 SE8       29.51F FOG
WAHPETON ARPT  CLOUDY    32  32 100 SE10      29.52F WCI  24
$$

 *****  WEATHER ACROSS CENTRAL AND WESTERN NORTH DAKOTA  *****

CITY           SKY/WX    TMP DP  RH WIND       PRES   REMARKS
JAMESTOWN      FOG       34  34 100 SE10      29.44R VSB 1/2
BISMARCK       FOG       24  22  91 CALM      29.42S VSB 1/4
MINOT          FAIR      20  16  84 SW8       29.37F WCI  10
MINOT AFB      MOCLDY    15  13  90 W6        29.38S FOG     WCI   6
GARRISON         N/A     11   8  88 NW6       29.38F WCI   1
WILLISTON      FAIR      14  13  95 W3        29.40S FOG
DICKINSON      FAIR      21  18  88 W9        29.35S WCI  11
HETTINGER      FAIR      24  21  88 NW10      29.38F WCI  14
$$

 *****  OTHER OBSERVATIONS NORTHEAST NORTH DAKOTA  *****

CITY           SKY/WX    TMP DP  RH WIND       PRES   REMARKS
WALHALLA       NOT AVBL
LANGDON        NOT AVBL
CAVALIER         N/A     34  34 100 S9        29.49S FOG
GRAFTON        FOG       34  34 100 SE12      29.52R VSB 1/2
CANDO          NOT AVBL
FORT TOTTEN      N/A     32  32 100 S5        29.95S
ROLLA            N/A    N/A N/A N/A MISG        N/A
RUGBY          FOG       25  25 100 SE7       29.43R VSB 1   WCI  17
 ***** THE ABOVE OBSERVATIONS ARE NON NWS ARE NOT QUALITY
        CONTROLLED AND MAY MIS-REPORT RAIN FOR SNOW...
$$

 *****  OTHER OBSERVATIONS SOUTHEAST NORTH DAKOTA *****

CITY           SKY/WX    TMP DP  RH WIND       PRES   REMARKS
COOPERSTOWN    FOG       34  34 100 SE10      29.47S VSB<1/4
VALLEY CITY    FOG       32  32 100 S9        29.49R VSB 1/4 WCI  24
OAKES          NOT AVBL
GWINNER        CLOUDY    34  34 100 SE14      29.49S WCI  24
SHEYENNE NWR     N/A     34  33  98 SE10      29.95S
BUFFALO        NOT AVBL
WYNDMERE       NOT AVBL
 ***** THE ABOVE OBSERVATIONS ARE NON NWS ARE NOT QUALITY
       CONTROLLED AND MAY MIS-REPORT RAIN FOR SNOW...
$$

  *****  WEATHER ACROSS NORTHERN MINNESOTA  *****

CITY           SKY/WX    TMP DP  RH WIND       PRES   REMARKS
FLAG ISLAND    CLOUDY    34  34 100 SE13      29.57S FOG     WCI  25
WARROAD        CLOUDY    36  30  80 SE7       29.57S FOG
ROSEAU         CLOUDY    36  30  80 SE7       29.56S HAZE
HALLOCK        CLOUDY    36  34  93 SE13      29.51R FOG
THF RVR FALLS  CLOUDY    34  34 100 SE14      29.55S WCI  25
HALSTAD        NOT AVBL
FOSSTON        CLOUDY    34  32  93 E7        29.55S FOG
BAUDETTE       FOG       34  33  96 SE6       29.58F VSB 1/2
WASKISH        CLOUDY    36  34  93 SE5       29.59S FOG
CROOKSTON      CLOUDY    36  34  93 SE10      29.54S
$$
  *****  WEATHER ACROSS CENTRAL AND WEST MINNESOTA  *****

CITY           SKY/WX    TMP DP  RH WIND       PRES   REMARKS
BEMIDJI        FOG       33  33 100 SE3       29.57F VSB 3/4
PARK RAPIDS    CLOUDY    34  31  88 E6        29.56S FOG
WADENA         CLOUDY    32  32 100 E7        29.56S FOG
DETROIT LAKES  CLOUDY    34  34 100 SE9       29.54F FOG
MOORHEAD       CLOUDY    34  34 100 SE8       29.53F FOG
FERGUS FALLS   CLOUDY    34  34 100 SE9       29.57S FOG
ELBOW LAKE     CLOUDY    33  33 100 SE7       29.53F FOG
MORRIS MN      FOG       34  34 100 SE10      29.52F VSB 1
STAPLES        CLOUDY    34  34 100 E3        29.57S FOG
WHEATON        CLOUDY    41  41 100 SE9       29.54S FOG
$$
  *****  WEATHER ELSEWHERE ACROSS MINNESOTA  *****

CITY           SKY/WX    TMP DP  RH WIND       PRES   REMARKS
DULUTH         CLOUDY    35  33  92 SE9       29.64S
INTRNTL FALLS  CLOUDY    33  32  96 E3        29.62S FOG
ELY            FOG       21  19  93 CALM      29.66R VSB<1/4
CLOQUET        MIX PCPN  34  32  93 SE6       29.64R
BRAINERD       LGT RAIN  34  34 100 E3        29.59F FOG
HIBBING        FOG       31  31 100 E3        29.63S VSB 1/2
ALEXANDRIA     CLOUDY    33  33 100 E9        29.55S FOG
SAINT CLOUD    FOG       34  34 100 SE6       29.59S VSB 1
MINNEAPOLIS    DRIZZLE   35  33  92 SE7       29.62S FOG
$$

  *****  WEATHER ACROSS SOUTH DAKOTA  *****

CITY           SKY/WX    TMP DP  RH WIND       PRES   REMARKS
SIOUX FALLS    FOG       37  37 100 SE10      29.50S VSB 3/4
BROOKINGS      CLOUDY    35  34  96 SE12      29.47F FOG
WATERTOWN      CLOUDY    35  35 100 SE10      29.47S FOG
HURON          CLOUDY    36  36 100 SE10      29.44R
SISSETON         N/A     34  34 100 S9        29.50S
ABERDEEN       CLOUDY    34  32  92 E10       29.45S
MITCHELL       CLOUDY    38  37  97 SE10      29.46R
PIERRE         FOG       14  12  92 W8        29.38S VSB 1/2 WCI   3
MOBRIDGE       FOG       23  20  88 MISG      29.35S VSB 3/4
RAPID CITY     FAIR      31  24  75 W9        29.38S WCI  23
$$

  *****  SOME WEATHER IN NEARBY STATES *****

CITY           SKY/WX    TMP DP  RH WIND       PRES   REMARKS
GLASGOW MT     FAIR      28  24  85 W10       29.41F WCI  19
GREAT FALLS MT FAIR      32  23  69 SW12      29.43F WCI  23
CHEYENNE WY    LGT SNOW  33  26  75 W7        29.46S
SCOTTSBLUFF NE FAIR      27  22  81 NW7       29.43F WCI  19
OMAHA NE       CLOUDY    39  36  89 S9        29.58R
DES MOINES IA  FOG       37  37 100 E3        29.59S VSB 1/4
DAVENPORT IA   FOG       36  35  96 E7        29.63R VSB 1/4
CHICAGO IL     CLOUDY    38  37  97 E7        29.62S FOG
EAU CLAIRE WI  CLOUDY    35  35 100 E5        29.65S FOG
LA CROSSE WI   FOG       36  34  92 CALM      29.65S VSB 1/4
$$

  *****  SOME NATIONAL WEATHER *****

CITY           SKY/WX    TMP DP  RH WIND       PRES   REMARKS
LA GUARDIA NY  CLOUDY    42  32  67 NE8       30.01S
RALEIGH NC     LGT RAIN  48  46  93 SE6       29.92R FOG
ATLANTA GA     PTSUNNY   64  61  90 SW8       29.86R
NEW ORLEANS LA PTSUNNY   66  66 100 S6        29.84R FOG
OKLAHOMA CITY  FAIR      35  35 100 S9        29.50R
ALBUQUERQUE NM MOCLDY    34  31  88 W9G20     29.72R
SALT LAKE CITY FOG       30  29  96 SE5       29.61F VSB 1
LOS ANGELES CA RAIN      52  50  93 E6        29.77F
BOISE ID       FAIR      35  28  75 SE14      29.45F
SEATTLE WA     FAIR      41  33  73 E8        29.20F
$$

*** WEATHER ACROSS MANITOBA...SASKATCHEWAN AND ONTARIO ***
                ***ONTARIO***

CITY           SKY/WX    TMP DP  RH WIND       PRES   REMARKS
GERALDTON      FOG       34  34 100 S6        29.68S VSB 1/4
THUNDER BAY    FOG       30  30 100 CALM      29.72S VSB 1/4
SIOUX LOOKOUT  FOG       34  34 100 S6        29.62R VSB 1/8
TORONTO        CLOUDY    37  34  87 E9        29.80F
BIG TROUT LK   FOG       19  18  93 VRB2      29.58S VSB 3/8
PICKLE LAKE    FOG       34  34 100 SW6       29.59S VSB 3/8
DRYDEN         FOG       34  34 100 S6        29.60F VSB 1/8
KENORA         FOG       34  34 100 S7        29.58S VSB 1/4
$$
                *** MANITOBA***

CITY           SKY/WX    TMP DP  RH WIND       PRES   REMARKS
BRANDON        FOG        9   7  92 N3        29.42F VSB 3/8
DAUPHIN        FOG       23  21  93 SE7       29.40R VSB 1   WCI  15
ISLAND LAKE    NOT AVBL
PILOT MOUND      N/A     25  25 100 S7          N/A  WCI  17
THE PAS        PTCLDY    27  23  86 E3        29.39R
THOMPSON       CLOUDY    28  27  93 E7        29.51S FOG     WCI  21
WINNIPEG       CLOUDY    34  34 100 S12       29.50S FOG
LYNN LAKE      FOG       28  28 100 E12       29.45R VSB 1   WCI  18
GILLAM         CLOUDY    23  23 100 E5        29.59S WCI  17
$$
                ***SASKATCHEWAN***

CITY           SKY/WX    TMP DP  RH WIND       PRES   REMARKS
ESTEVAN        MOCLDY    12   9  85 NW2       29.37S
KINDERSLEY     MOCLDY    27  21  80 NW6       29.33S WCI  20
LLOYDMINSTER   PTCLDY    21  19  93 W8        29.32R WCI  12
PRINCE ALBERT  MOCLDY    23  21  93 CALM      29.30R
REGINA         PTCLDY    16  14  93 SE8       29.36S WCI   5
YORKTON        CLEAR     25  23  93 S7        29.36R WCI  17
N. BATTLEFORD  CLEAR     28  28 100 W8        29.33S WCC1F1C2F2C3F3C4F4C5F5C6F6C7F7C8F8C9F9CaFaCbFbCcFcCdFdCe!



USA.gov is the U.S. government's official web portal to all federal, state and local government web resources and services.